Lid_Strength_Index
6 5 6 7 8 8 7 7 8 8 8 9 10 9 8 7 7 6 6 5 5 5 5 5 5 5 5 6 5 6 6 6 4 5 5 5 4 3 3 2 2 1 1
6 6 7 7 7 8 8 8 8 8 8 9 9 7 7 7 7 6 6 5 5 5 5 5 5 5 6 6 5 6 6 6 5 5 6 7 5 4 3 2 2 2 2
6 7 7 7 7 8 8 8 7 7 8 8 8 7 7 7 7 7 6 5 5 5 5 5 5 5 6 6 6 6 6 7 5 5 5 7 7 5 3 3 2 2 2
6 6 6 7 7 8 7 7 7 8 9 9 8 8 8 8 7 7 7 6 5 5 4 5 5 5 5 6 6 5 5 6 6 5 5 4 4 7 7 4 2 2 2
6 7 6 6 7 7 8 8 8 8 9 9 8 8 8 8 7 7 6 6 5 5 5 5 5 5 5 5 6 6 5 5 5 5 5 5 5 4 5 7 5 2 2
5 6 6 6 7 7 8 8 8 9 10 9 7 8 8 7 7 7 6 6 6 6 5 5 5 5 6 5 6 6 5 5 5 5 5 5 5 5 5 6 5 4 2
6 6 7 8 8 8 8 8 9 10 10 8 7 7 7 7 6 6 6 6 6 6 5 6 6 6 6 6 6 6 6 5 5 5 5 5 5 4 4 5 5 5 3
6 6 7 8 8 8 8 8 9 10 9 8 7 7 7 6 6 6 6 6 6 6 5 5 5 6 7 7 7 6 6 5 5 5 4 5 4 4 4 4 5 5 4
7 7 7 8 8 8 8 8 9 10 8 7 7 7 7 6 6 6 6 6 6 6 5 5 6 7 7 7 7 7 6 6 5 5 4 5 4 4 4 3 3 4 6
6 7 7 8 8 8 8 8 9 8 8 7 7 7 7 6 5 6 5 6 6 6 6 5 6 7 7 8 7 7 6 5 5 4 5 4 4 4 4 4 3 3 4
6 6 7 7 8 8 8 9 9 8 8 7 7 7 7 6 5 5 5 6 6 6 5 5 6 7 8 8 8 7 5 6 5 4 5 4 3 4 4 4 3 3 3
5 6 7 8 8 8 9 9 8 8 7 7 7 7 6 6 5 5 5 5 6 6 5 5 6 7 7 8 8 7 6 6 5 5 4 5 4 4 3 4 4 3 3
6 6 7 8 8 8 9 9 8 8 7 7 7 7 6 6 5 5 6 6 6 5 5 5 6 6 7 7 7 7 6 5 5 6 5 5 5 5 4 4 5 4 3
8 9 9 8 8 9 9 8 8 8 7 7 7 7 6 6 6 6 6 6 6 5 5 5 5 6 6 7 6 6 6 5 5 6 6 5 5 4 4 3 4 4 4
9 10 9 10 10 10 9 8 8 7 7 7 6 6 6 6 6 6 6 6 5 5 5 5 5 5 5 6 5 5 5 4 5 6 6 6 3 3 3 3 4 4 5
9 10 10 11 10 10 9 8 8 7 7 7 6 6 6 6 6 6 6 6 5 5 6 5 6 5 5 6 5 4 6 5 5 5 6 6 6 4 4 3 3 3 5
8 9 10 10 10 10 9 8 8 6 7 6 5 5 6 6 5 6 6 6 5 5 6 5 5 5 4 6 6 5 6 6 5 4 6 6 6 5 5 5 4 4 3
8 8 10 10 10 10 8 7 7 6 7 6 5 5 5 5 6 6 6 6 5 5 6 5 5 5 5 6 7 6 6 6 5 4 5 5 6 5 5 6 5 5 4
7 8 8 9 10 9 8 7 7 7 6 5 6 5 5 5 5 6 6 5 5 6 6 5 5 5 5 7 7 6 6 7 6 5 5 4 6 6 6 6 6 5 4
8 9 10 10 9 8 8 8 7 7 7 5 6 5 5 4 5 6 6 5 5 5 5 5 6 6 6 7 7 7 7 7 7 6 5 5 5 6 7 5 6 6 5
10 10 9 9 9 8 8 8 8 7 5 5 5 4 4 5 6 6 5 6 6 6 5 7 7 6 6 7 8 8 7 8 7 7 7 6 6 7 7 7 5 5 5
10 9 10 10 8 7 7 8 8 6 5 5 4 4 4 6 6 6 6 6 6 6 7 8 8 7 7 8 8 8 8 8 8 7 7 5 7 7 7 6 7 6 5
9 10 10 10 8 7 7 8 6 5 5 5 4 4 5 6 7 6 6 7 7 8 8 8 8 8 7 7 8 9 9 8 7 7 7 7 7 7 6 7 7 6 5
10 10 9 9 9 8 7 5 5 5 5 6 5 5 6 7 6 6 6 7 7 8 8 8 8 8 7 8 7 7 7 7 7 7 6 6 6 7 6 6 5 5 4
9 9 8 8 8 7 6 5 5 6 6 6 6 6 7 6 6 6 6 6 6 6 7 8 8 8 8 7 8 8 7 7 8 8 6 6 6 6 6 6 5 5 5
9 9 8 8 7 6 5 5 5 6 7 7 6 7 7 7 7 7 7 8 9 9 10 9 8 7 8 9 9 9 10 10 9 7 7 7 6 6 6 6 6 5 5